SCP
0 1 1 1 2 2 2 1 1 1 1 1 1 1 1 1 1 1 1 0 0 0 0 0 0 0 0 0 0 0 0 0 0 0 0 0 0 0 0 0 0 0 0
0 0 1 1 1 2 2 1 1 1 1 1 1 1 1 1 1 1 1 0 0 0 0 0 0 0 0 0 0 0 0 0 0 0 0 0 0 0 0 0 0 0 0
0 0 0 1 1 1 1 1 1 1 1 0 1 1 1 1 1 1 1 0 0 0 0 0 0 0 0 0 0 0 0 0 0 0 0 0 0 0 0 0 0 0 0
0 0 0 0 0 0 1 1 1 1 1 0 1 1 1 1 1 0 0 0 0 0 0 0 0 0 0 0 0 0 0 0 0 0 0 0 0 0 0 0 0 0 0
0 0 0 0 0 0 0 0 0 0 0 0 0 1 1 1 1 0 0 0 0 0 0 0 0 0 0 0 0 0 0 0 0 0 0 0 0 0 0 0 0 0 0
0 0 0 0 0 0 0 0 0 0 0 0 0 1 1 1 1 0 0 0 0 0 0 0 0 0 0 0 0 0 0 0 0 0 0 0 0 0 0 0 0 0 0
0 0 0 0 0 0 0 0 0 0 0 0 0 0 0 0 0 0 0 0 0 0 0 0 0 0 0 0 0 0 0 0 0 0 0 0 0 0 0 0 0 0 0
0 0 0 0 0 0 0 0 0 0 0 0 0 0 0 0 0 0 0 0 0 0 0 0 0 0 0 0 0 0 0 0 0 0 0 0 0 0 0 0 0 0 0
0 0 0 0 0 0 0 0 0 0 0 0 0 0 0 0 0 0 0 0 0 0 0 0 0 0 0 0 0 0 0 0 0 0 0 0 0 0 0 0 0 0 0
0 0 0 0 0 0 0 0 0 0 0 0 0 0 0 0 0 0 0 0 0 0 0 0 0 0 0 0 0 0 0 0 0 0 0 0 0 0 0 0 0 0 0
0 0 0 0 0 0 0 0 0 0 0 0 0 0 0 0 0 0 0 0 0 0 0 0 0 0 0 0 0 0 0 0 0 0 0 0 0 0 0 0 0 0 0
0 0 0 0 0 0 0 0 0 0 0 0 0 0 0 0 0 0 0 0 0 0 0 0 0 0 0 0 0 0 0 0 0 0 0 0 0 0 0 0 0 0 0
0 0 0 0 0 0 0 0 0 0 0 0 0 0 0 0 0 0 0 0 0 0 0 0 0 0 0 0 0 0 0 0 0 0 0 0 0 0 0 0 0 0 0
0 0 0 0 0 0 0 0 0 0 0 0 0 0 0 0 0 0 0 0 0 0 0 0 0 0 0 0 0 0 0 0 0 0 0 0 0 0 0 0 0 0 0
0 0 0 0 0 0 0 0 0 0 0 0 0 0 0 0 0 0 0 0 0 0 0 0 0 0 0 0 0 0 0 0 0 0 0 0 0 0 0 0 0 0 0
0 0 0 0 0 0 0 0 0 0 0 0 0 0 0 0 0 0 0 0 0 0 0 0 0 0 0 0 0 0 0 0 0 0 0 0 0 0 0 0 0 0 0
0 0 0 0 0 0 0 0 0 0 0 0 0 0 0 0 0 0 0 0 0 0 0 0 0 0 0 0 0 0 0 0 0 0 0 0 0 0 0 0 0 0 0
0 0 0 0 0 0 0 0 0 0 0 0 0 0 0 0 0 0 0 0 0 0 0 0 0 0 0 0 0 0 0 0 0 0 0 0 0 0 0 0 0 0 0
0 0 0 0 0 0 0 0 0 0 0 0 0 0 0 0 0 0 0 0 0 0 0 0 0 0 0 0 0 0 0 0 0 0 0 0 0 0 0 0 0 0 0
0 0 0 0 0 0 0 0 0 0 0 0 0 0 0 0 0 0 0 0 0 0 0 0 0 0 0 0 0 0 0 0 0 0 0 0 0 0 0 0 0 0 0
0 0 0 0 0 0 0 0 0 0 0 0 0 0 0 0 0 0 0 0 0 0 0 0 0 0 0 0 0 0 0 0 0 0 0 0 0 0 0 0 0 0 0
0 0 0 0 0 0 0 0 0 0 0 0 0 0 0 0 0 0 0 0 0 0 0 0 0 0 0 0 0 0 0 0 0 0 0 0 0 0 0 0 0 0 0
0 0 0 0 0 0 0 0 0 0 0 0 0 0 0 0 0 0 0 0 0 0 0 0 0 0 0 0 0 0 0 0 0 0 0 0 0 0 0 0 0 0 0
0 0 0 0 0 0 0 0 0 0 0 0 0 0 0 0 0 0 0 0 0 0 0 0 0 0 0 0 0 0 0 0 0 0 0 0 0 0 0 0 0 0 0
0 0 0 0 0 0 0 0 0 0 0 0 0 0 0 0 0 0 0 0 0 0 0 0 0 0 0 0 0 0 0 0 0 0 0 0 0 0 0 0 0 0 0
0 0 0 0 0 0 0 0 0 0 0 0 0 0 0 0 0 0 0 0 0 0 0 0 0 0 0 0 0 0 0 0 0 0 0 0 0 0 0 0 0 0 0
Wind_Speed
3 3 3 3 4 3 3 4 4 3 3 2 2 3 2 1 1 1 2 2 2 2 2 2 2 2 2 2 1 1 1 1 1 2 2 2 1 1 1 1 1 1 1
2 2 2 2 3 4 4 4 4 4 3 2 2 2 2 1 1 1 1 2 2 3 2 3 2 2 2 2 2 2 1 1 1 2 1 1 2 2 1 0 0 1 1
6 4 3 3 3 3 4 4 4 4 3 3 2 3 3 2 2 1 0 1 2 3 3 3 2 2 2 2 1 1 2 1 0 1 2 2 2 2 2 1 0 1 1
5 5 5 4 4 4 3 3 4 4 3 3 4 4 3 2 2 1 1 0 1 2 2 2 2 2 2 2 1 1 1 2 1 0 1 1 2 1 2 2 1 1 1
6 6 6 5 4 3 3 3 4 3 3 3 4 5 3 2 1 1 2 1 1 1 1 2 2 2 1 1 1 1 1 1 2 1 0 0 0 1 1 2 2 2 2
5 4 3 4 3 3 3 4 4 3 3 3 3 3 4 3 3 2 1 1 0 0 0 1 1 2 1 1 1 1 2 2 2 1 1 1 1 1 1 2 3 3 3
5 5 5 4 4 4 4 4 5 3 3 3 3 2 3 3 3 3 2 2 1 1 1 1 1 1 1 2 2 2 1 2 2 2 1 1 1 1 1 1 2 3 3
5 5 6 5 5 5 5 4 5 4 4 3 3 2 2 2 2 3 2 2 2 2 2 1 1 1 1 1 1 1 1 1 2 2 2 1 1 1 1 2 1 2 3
5 4 4 4 4 4 5 5 5 4 4 4 3 2 2 2 3 2 2 2 1 1 1 1 1 1 1 1 1 1 1 1 2 2 2 1 1 1 1 1 2 2 3
4 4 4 4 4 4 3 3 4 4 4 4 3 3 3 3 3 2 3 2 2 2 2 1 1 1 1 1 1 1 1 1 2 2 2 2 1 1 1 1 1 2 3
4 4 4 3 3 3 3 3 3 3 2 2 2 3 3 3 3 3 3 3 2 2 2 2 2 2 2 2 2 2 2 2 2 2 3 3 2 1 1 1 1 2 2
3 3 3 3 3 3 3 4 4 4 4 3 2 2 2 2 3 3 3 3 3 3 3 2 2 3 3 3 3 3 3 3 3 3 3 3 2 2 2 2 2 2 2
2 1 2 2 3 3 3 3 4 4 3 3 3 2 2 3 3 3 3 3 3 3 3 3 3 3 3 3 3 4 4 4 4 4 4 3 3 3 2 2 2 2 2
1 1 2 2 3 3 3 3 3 3 3 3 3 3 4 4 4 3 3 3 3 3 3 3 4 4 4 4 4 4 4 4 4 4 4 4 4 4 4 3 3 3 3
1 2 2 2 2 2 2 2 2 3 3 3 4 4 4 3 3 3 3 3 3 4 4 3 4 3 3 4 4 4 4 4 4 4 4 5 6 7 5 4 4 3 3
4 3 3 2 2 3 2 2 3 3 3 4 4 4 3 3 3 3 3 3 3 3 3 4 4 4 4 6 8 6 4 4 5 5 4 5 6 7 8 8 7 6 5
4 4 4 4 4 4 4 4 4 3 3 4 4 3 3 3 3 3 3 3 3 3 4 4 4 5 6 8 9 9 5 5 5 5 5 4 5 6 4 7 8 8 9
4 4 4 4 3 3 3 2 2 2 3 3 3 4 4 4 3 3 4 4 3 4 4 5 5 5 7 9 9 9 6 5 5 6 6 6 6 5 5 5 5 6 6
4 4 4 4 3 3 2 2 2 2 2 4 4 4 4 4 4 4 5 4 3 4 4 4 5 6 7 9 10 8 4 4 6 6 6 6 6 9 9 6 6 6 6
3 3 2 1 2 2 2 2 2 3 4 5 5 4 4 4 5 5 5 3 3 5 4 5 5 6 6 9 10 9 3 5 5 4 5 9 9 10 10 6 6 7 6
3 2 2 2 3 2 2 3 3 5 5 4 4 3 4 4 5 4 3 3 3 4 4 5 5 5 7 9 11 10 4 5 5 4 4 5 10 11 11 9 6 8 6
2 2 2 2 2 2 2 3 5 5 4 3 3 4 4 4 3 3 3 3 3 4 4 4 5 4 5 7 8 11 10 8 5 5 5 6 10 11 11 8 9 11 7
2 2 2 2 3 3 3 4 6 4 3 3 4 4 4 3 3 3 3 3 3 3 4 4 4 5 4 5 10 11 12 11 6 5 8 9 11 10 8 9 10 7 4
3 2 2 2 3 3 4 5 5 3 3 4 4 3 3 3 3 3 3 3 3 4 4 4 5 5 4 4 4 4 5 8 7 6 8 11 11 8 8 7 6 4 4
3 2 3 4 5 4 4 4 4 3 3 4 4 3 3 3 3 3 4 4 5 5 6 5 5 5 6 7 9 6 5 4 5 4 3 3 3 4 4 4 4 4 4
3 3 3 4 4 4 4 5 4 3 4 4 4 3 3 3 3 3 4 6 7 10 11 10 8 7 9 11 11 11 11 11 10 6 4 5 5 5 5 5 5 4 5
Wind_Direction
212 175 163 155 140 136 145 151 138 137 126 124 132 130 135 132 113 135 151 144 140 133 123 118 104 100 118 127 110 100 82 45 62 64 21 359 10 46 68 60 60 35 31
185 158 139 136 145 146 150 156 148 149 142 136 146 136 132 144 143 126 133 142 142 143 128 121 126 109 108 97 81 85 95 46 63 99 92 359 336 343 352 352 48 13 12
187 179 166 161 145 143 164 168 162 151 145 134 116 98 84 71 67 78 110 149 143 136 128 137 138 122 122 128 130 132 126 139 12 90 131 146 233 299 310 299 310 335 346
180 177 173 173 164 167 166 154 147 143 145 142 140 133 135 145 176 173 162 132 129 127 134 138 140 134 131 137 151 140 141 143 150 360 51 146 160 173 299 304 301 297 282
181 182 182 180 165 159 155 148 137 138 143 145 143 138 136 146 146 119 108 93 77 115 131 137 141 138 135 147 135 128 136 141 159 160 123 51 41 156 181 279 303 305 273
181 181 180 159 146 147 149 149 146 146 144 145 137 141 147 147 135 128 137 128 47 43 107 144 144 141 146 163 163 158 157 164 162 156 154 161 179 199 187 246 283 289 284
174 173 175 172 168 165 168 166 158 164 158 148 147 152 160 161 162 169 173 169 171 230 230 173 166 155 170 174 160 158 179 182 177 180 187 190 205 191 189 218 266 284 288
180 181 185 183 183 178 175 174 174 174 168 169 174 172 172 169 177 183 177 184 194 209 205 186 183 180 171 167 159 167 190 187 191 196 193 200 226 201 194 192 199 284 290
181 183 186 185 182 182 185 185 182 178 180 183 179 181 190 187 190 190 180 187 199 204 192 187 193 205 185 174 159 187 210 197 205 208 204 206 224 220 224 207 189 200 262
188 188 188 190 192 190 190 187 184 187 188 182 183 187 200 200 192 182 192 196 198 191 184 203 210 219 217 198 177 193 207 198 220 212 213 219 221 226 228 223 222 210 222
198 199 197 193 188 180 178 185 191 185 187 189 186 183 195 194 188 193 205 204 202 196 199 211 216 222 224 216 204 218 211 209 230 228 217 229 224 223 231 224 220 225 216
199 193 190 179 178 184 186 192 196 196 200 194 186 195 194 188 194 206 212 206 207 209 208 210 216 224 227 222 216 228 224 219 228 233 227 233 232 232 230 220 230 234 228
198 186 181 187 195 201 203 202 204 207 202 188 185 197 208 204 210 215 216 210 209 213 212 208 219 227 228 227 224 225 229 229 232 229 229 237 233 245 244 233 234 241 248
201 200 221 229 220 213 210 210 215 211 198 188 190 207 218 217 220 219 214 214 212 213 219 222 226 228 230 230 229 227 231 236 239 235 233 234 228 235 236 236 234 236 246
211 213 222 235 229 222 224 223 225 218 201 193 202 218 223 220 218 221 223 222 220 223 222 225 232 232 231 231 227 227 229 233 242 245 240 237 234 235 235 238 230 223 232
220 224 228 233 234 230 231 237 239 233 206 205 219 222 217 216 219 226 226 228 233 232 225 226 230 236 244 248 244 235 231 233 238 248 251 249 241 241 247 253 248 230 227
224 221 217 218 222 223 218 223 229 224 213 218 225 220 215 218 226 228 225 229 232 231 236 236 234 240 247 254 255 246 236 232 236 240 247 255 250 248 241 253 256 249 245
239 231 227 228 231 226 226 230 232 220 224 233 232 224 214 221 226 225 231 234 230 230 234 238 238 244 252 254 257 254 239 233 236 235 236 243 250 241 235 236 245 247 246
238 233 226 224 218 219 218 209 229 238 242 244 243 236 224 226 227 230 234 231 230 238 237 237 235 241 255 255 257 250 231 237 244 243 239 239 243 248 245 238 244 254 257
250 240 229 220 213 227 201 201 234 237 245 248 248 242 229 227 231 235 236 231 229 239 242 247 240 239 250 257 256 247 226 237 248 249 247 247 248 251 245 234 234 250 256
264 233 212 222 232 224 193 222 241 246 249 252 251 246 236 233 236 238 237 235 236 242 246 254 256 247 249 258 257 248 229 228 241 247 249 248 256 258 253 246 237 249 257
277 249 224 249 255 227 207 235 249 254 253 247 244 247 247 245 241 233 242 235 229 242 252 258 268 261 254 254 256 253 246 241 238 245 244 247 257 260 258 254 254 262 263
270 257 234 253 265 242 219 239 257 258 249 244 247 252 256 253 241 231 239 244 233 238 248 247 259 269 261 257 260 262 259 252 245 246 255 257 259 261 260 257 260 260 243
271 265 253 257 270 264 249 246 257 251 240 247 254 253 254 260 257 243 233 235 235 240 246 248 253 261 263 254 250 252 257 257 254 253 259 261 260 255 254 258 253 236 228
280 265 251 255 264 267 267 266 256 239 244 252 256 258 254 253 255 252 242 241 237 234 241 244 242 249 261 257 254 255 251 243 244 255 254 247 246 239 239 241 239 232 231
284 282 276 272 275 272 270 271 261 241 241 254 254 249 251 254 253 262 278 263 259 265 260 257 253 253 256 267 265 265 266 264 261 257 247 245 240 240 241 242 241 233 230